Temperature
19 19 20 20 20 20 22 24 25 24 24 24 24 24 24 23 22 20 20 19 19 19 19 18 17 16 14 14 13 12 12 11 11 11 10 10 10 10 10 9 9 9 9 9 9 10 10 10 10
19 19 20 21 20 21 23 24 24 24 24 23 23 24 24 24 23 21 20 19 19 18 19 18 17 16 15 14 13 12 12 11 11 11 10 10 10 9 9 9 9 9 9 10 10 10 10 10 11
19 19 21 21 22 22 23 24 24 24 24 24 24 24 24 23 22 21 20 20 19 18 18 18 17 16 14 13 12 12 12 11 11 11 10 10 10 9 9 9 9 10 10 10 10 10 10 11 11
19 20 22 22 23 24 24 24 24 24 24 23 23 24 23 22 21 20 20 19 18 18 17 18 17 16 14 13 12 11 11 11 10 10 10 10 9 9 9 9 9 10 10 10 10 10 11 11 11
20 21 21 22 23 24 24 24 24 24 24 24 24 23 23 20 21 20 20 19 18 17 17 17 16 15 14 13 12 11 11 10 10 10 10 9 9 9 9 9 9 10 10 10 10 10 11 11 11
21 22 21 22 24 24 25 24 24 24 24 24 23 23 21 20 20 20 20 19 18 17 16 17 16 15 14 13 12 11 11 10 10 10 10 9 9 9 9 9 9 9 9 10 10 10 10 11 11
21 21 21 22 23 23 24 23 23 23 23 23 23 23 21 19 19 19 19 18 18 17 16 16 15 14 13 12 12 11 11 10 10 10 9 9 9 9 9 9 9 9 9 10 10 10 10 10 10
21 21 21 22 23 23 24 23 23 22 22 22 22 21 20 19 19 19 18 18 17 16 16 15 15 14 13 12 12 11 11 10 10 10 10 9 9 9 9 9 9 9 9 9 10 10 10 10 10
21 20 20 22 22 23 23 23 22 22 22 22 21 21 19 19 19 18 18 17 17 16 15 14 14 13 12 12 11 11 11 10 10 10 10 10 9 9 9 9 9 9 9 9 9 9 9 10 10
22 19 21 22 22 21 22 22 22 22 22 21 21 20 19 18 18 17 17 17 16 16 15 14 13 13 12 12 11 11 10 10 10 10 10 9 9 9 9 9 9 9 9 9 9 9 9 9 10
22 21 22 22 22 21 21 21 21 21 19 19 19 18 18 18 17 17 17 16 16 16 15 14 13 13 12 11 11 11 10 10 10 9 9 9 9 8 8 8 9 9 9 9 9 9 9 9 9
22 22 22 22 20 20 20 20 20 20 19 19 18 18 17 17 17 16 16 16 16 15 15 14 13 13 12 11 11 11 10 10 10 9 9 9 9 8 8 8 8 8 9 9 8 8 8 8 8
21 21 22 21 20 20 20 20 19 19 19 18 18 17 17 16 16 16 16 16 15 15 14 14 13 12 12 11 11 11 10 10 10 9 9 9 9 9 8 8 8 8 8 8 8 8 8 8 8
21 21 21 21 21 20 19 19 19 19 19 18 17 17 16 16 16 16 16 15 15 15 14 13 13 12 12 11 11 10 10 10 10 9 9 9 9 8 8 8 8 8 8 8 8 8 8 8 7
20 19 20 21 21 20 19 18 19 19 19 18 18 16 16 15 15 15 15 15 15 14 14 13 13 12 12 11 11 10 10 10 10 9 9 9 9 8 8 8 8 8 8 7 7 7 7 7 7
20 19 19 21 21 20 18 18 19 19 19 19 18 16 15 15 15 14 15 15 15 14 14 13 13 12 11 11 11 10 10 10 10 9 9 9 9 8 8 8 8 8 7 7 7 7 7 7 7
20 19 20 20 20 20 19 18 19 19 19 19 18 17 15 15 14 14 14 14 14 14 14 13 13 12 11 11 11 10 10 10 9 9 9 9 9 8 8 8 8 8 7 7 7 7 7 7 7
19 20 21 20 20 20 19 18 19 19 19 19 18 17 15 14 14 14 14 14 14 14 13 13 13 12 12 11 11 10 10 10 10 10 9 9 9 9 8 8 8 8 8 7 7 7 6 6 6
19 19 19 20 19 19 18 18 18 19 19 18 18 17 15 14 13 13 13 14 14 13 13 13 12 12 12 11 11 11 10 10 10 10 10 9 9 9 9 9 8 8 8 8 7 7 6 6 6
19 18 19 20 19 18 18 18 18 18 18 18 18 17 15 14 13 13 13 13 13 13 13 13 12 12 12 11 11 11 11 10 10 10 10 10 9 9 9 8 8 8 8 7 7 7 6 6 6
18 18 19 19 19 18 18 17 17 18 18 18 18 17 15 14 13 13 13 13 13 13 13 13 12 12 12 11 11 11 10 10 10 10 9 9 9 9 8 8 8 7 7 7 7 6 6 5 5
18 19 19 18 17 17 18 16 17 16 16 16 17 16 15 14 13 13 12 13 13 13 13 12 12 12 12 11 11 10 10 9 9 9 9 9 8 8 8 7 7 7 7 6 6 6 5 5 5
18 17 18 17 16 16 17 17 17 16 15 15 16 16 15 14 13 12 12 12 12 12 12 12 12 11 11 11 10 10 9 9 9 8 8 8 8 7 7 7 6 6 6 6 6 5 5 5 4
18 17 17 16 15 15 17 17 18 16 16 16 16 16 15 13 13 12 12 12 12 12 12 11 11 11 10 10 10 9 9 9 8 8 8 7 7 7 6 6 6 6 5 5 5 5 4 4 4
17 16 16 15 14 16 19 18 18 18 17 17 16 15 14 13 12 12 11 11 11 11 11 11 10 10 10 10 9 9 8 8 7 7 7 6 6 6 6 5 5 5 5 4 4 4 4 3 3
16 17 16 16 17 18 17 17 17 16 17 18 17 15 14 13 12 11 11 11 11 10 10 10 10 9 9 9 8 8 7 7 7 6 6 6 5 5 5 5 4 4 4 4 3 3 3 3 2
17 16 18 16 17 17 17 18 15 16 15 16 16 15 14 13 12 11 11 10 10 10 9 9 9 9 8 8 8 7 7 6 6 6 5 5 5 4 4 4 4 3 3 3 2 2 2 2 2
16 17 16 15 16 16 18 18 16 13 14 14 14 14 14 13 12 11 10 10 9 9 9 9 8 8 8 7 7 6 6 6 5 5 5 4 4 4 3 3 3 3 2 2 2 1 1 1 1
15 16 16 16 16 15 16 17 17 15 15 14 14 15 14 13 12 11 10 10 9 9 8 8 8 7 7 7 6 6 5 5 5 4 4 4 3 3 3 2 2 2 1 1 1 1 1 0 0
17 16 16 15 16 16 15 16 16 16 15 15 15 14 13 12 12 11 10 9 9 8 8 8 7 7 6 6 6 5 5 5 4 4 3 3 3 2 2 1 1 1 1 0 0 -0 -0 -0 -1
Wind_Speed
11 13 9 3 4 5 3 4 3 6 5 8 6 4 6 5 5 5 5 7 11 14 22 23 22 20 18 16 14 13 12 11 11 10 10 10 10 10 10 10 11 11 11 12 12 12 12 12 12
12 8 5 4 5 5 2 4 5 7 7 4 1 3 4 4 7 9 6 7 10 16 22 21 22 20 18 16 15 14 13 12 11 10 9 9 9 9 9 10 10 10 10 10 10 10 11 11 11
9 8 4 4 5 2 4 6 7 6 4 2 3 3 2 4 7 6 6 8 9 14 21 21 23 21 19 17 15 14 13 12 11 10 9 9 9 9 9 8 8 9 9 9 9 9 9 9 9
6 4 5 6 5 4 6 6 6 3 1 1 3 5 2 6 5 7 7 7 8 11 19 23 23 21 19 17 16 14 13 12 10 10 9 8 8 8 8 7 7 7 7 7 7 7 7 7 8
4 4 6 6 3 4 5 7 4 4 2 1 2 5 3 6 10 9 7 6 6 10 18 23 23 21 19 17 16 15 13 12 11 10 9 8 8 7 7 6 5 5 5 5 5 5 6 6 6
4 4 6 4 1 5 3 5 2 5 5 4 3 5 5 7 9 7 6 4 5 9 16 22 22 20 19 17 16 15 14 12 11 10 9 8 8 7 7 6 5 4 3 3 3 3 3 3 4
5 5 6 6 2 2 3 6 5 7 8 7 5 6 5 7 7 4 4 3 5 9 13 19 19 18 18 17 16 16 15 13 12 11 10 8 8 7 7 6 5 4 3 2 1 0 1 1 2
4 5 6 5 3 2 5 5 3 5 6 6 4 4 4 3 4 3 4 3 5 7 9 15 18 17 17 16 16 16 15 14 13 11 10 9 8 8 8 7 6 5 4 3 3 3 3 3 3
3 4 6 5 5 5 6 4 4 4 4 4 2 2 4 4 3 2 3 4 5 6 7 11 14 16 16 16 16 16 15 14 13 12 12 11 10 11 11 10 9 7 6 6 6 6 6 6 7
3 4 7 5 7 7 8 7 7 5 6 5 5 7 5 3 1 1 2 5 8 8 7 8 10 13 14 13 14 14 13 14 13 12 13 12 11 10 10 11 11 9 8 8 9 9 9 10 11
4 6 6 6 6 6 7 7 6 5 5 5 6 7 6 4 2 1 2 2 5 8 7 7 8 12 12 10 11 11 11 12 13 13 14 13 11 8 9 10 10 11 11 11 12 12 12 13 13
5 7 6 5 5 3 6 6 6 5 3 4 5 5 5 4 3 2 2 1 3 7 8 6 6 9 10 11 9 9 8 9 9 10 11 11 8 7 8 8 10 12 12 13 12 10 12 14 13
7 6 4 2 2 5 6 6 5 3 2 4 3 3 4 5 5 4 3 2 3 6 8 6 6 7 8 8 7 7 8 8 9 9 10 10 7 5 6 7 9 10 10 10 9 10 10 10 11
6 8 8 7 5 3 4 5 3 2 4 2 3 5 6 6 6 6 5 4 4 6 7 6 6 7 8 5 4 5 6 8 8 8 9 9 8 7 6 6 7 8 9 9 9 9 9 8 9
4 8 9 7 6 3 2 6 6 6 4 3 5 8 7 7 8 7 6 5 5 6 7 6 5 5 6 5 5 5 5 6 5 6 8 9 9 8 7 5 5 8 11 11 10 9 8 6 6
8 7 6 5 6 6 3 5 6 8 5 3 6 9 8 8 9 8 7 6 7 7 7 7 5 4 5 4 4 3 3 3 3 4 5 7 8 9 7 5 5 9 10 8 5 4 5 6 6
8 7 6 5 6 4 5 4 5 7 6 5 7 9 9 8 9 9 8 8 8 8 8 7 6 4 4 4 4 3 2 1 1 3 4 6 7 8 7 6 7 9 7 6 5 5 5 6 7
5 6 6 1 5 3 6 5 4 7 7 7 8 9 9 9 8 8 9 9 9 8 8 8 6 4 5 3 3 2 1 0 1 2 4 6 7 8 8 7 8 8 5 5 5 7 6 6 7
7 8 10 6 2 1 7 7 5 7 7 7 8 9 9 9 8 8 8 9 9 8 8 7 6 5 5 3 2 2 0 1 1 2 4 6 7 8 8 6 6 6 5 6 7 7 7 6 5
6 9 10 4 4 2 7 7 5 8 8 8 9 10 10 10 8 8 8 8 8 8 7 7 6 6 5 3 2 1 0 1 1 2 4 6 7 8 7 6 4 5 5 7 8 7 6 6 5
9 9 8 6 3 6 6 6 8 8 7 7 8 10 10 10 9 8 8 8 8 8 7 6 6 6 5 4 3 2 2 2 2 2 2 4 7 8 8 7 6 5 5 6 7 7 8 7 6
8 3 3 5 5 5 6 4 7 11 10 9 9 10 10 9 9 8 8 8 8 6 6 6 6 6 4 3 2 1 1 2 2 2 3 4 7 7 8 7 7 6 5 7 7 7 7 7 7
1 3 3 6 6 7 7 6 6 13 11 12 11 10 10 10 9 9 8 8 7 6 5 4 5 5 3 2 2 2 2 2 3 4 5 5 5 6 7 7 6 6 5 7 8 8 8 7 8
2 3 7 5 4 6 9 9 4 11 14 15 12 11 11 10 10 9 8 8 7 5 4 3 4 3 2 2 2 2 3 4 5 6 5 5 4 4 6 7 6 6 5 7 8 8 9 9 9
3 4 4 4 5 6 2 5 3 6 8 13 15 13 12 11 9 9 8 7 6 5 3 3 3 3 2 2 2 2 3 4 5 5 5 6 5 5 6 5 5 5 6 7 7 8 9 9 10
8 5 4 4 3 1 2 5 1 6 5 7 12 13 12 11 9 8 8 7 6 6 4 3 3 2 1 2 3 3 3 3 4 5 5 6 6 6 7 6 6 7 8 8 8 8 9 9 10
4 6 2 3 6 5 6 5 4 4 4 5 9 12 12 11 10 9 8 7 6 5 3 3 1 1 1 2 3 4 5 5 5 6 6 6 7 7 7 7 8 8 8 9 9 8 10 9 10
4 4 2 3 4 5 7 6 7 9 9 8 9 11 11 10 9 9 7 6 5 5 3 2 1 1 2 3 3 3 5 6 6 7 8 8 8 8 8 9 9 9 9 10 10 9 10 11 11
6 4 5 4 4 3 5 3 3 9 11 11 9 9 10 9 8 8 7 6 5 4 3 1 0 1 2 3 4 5 6 6 7 7 8 8 8 9 9 9 10 10 10 10 10 10 11 11 11
6 8 7 4 5 5 4 3 4 7 8 9 9 8 9 9 8 7 6 5 4 3 2 1 1 2 2 3 4 6 7 7 8 8 9 9 9 9 10 10 11 11 11 11 11 12 12 11 12
Wind_Direction
276 254 241 248 248 238 238 83 65 57 50 47 33 339 328 21 33 85 135 119 120 135 149 161 160 157 155 153 149 144 140 134 126 118 112 106 101 95 89 83 77 74 71 66 64 63 63 64 62
282 255 245 243 248 249 139 101 77 59 58 45 292 275 308 50 78 106 119 107 123 138 148 161 161 159 158 156 153 149 145 139 133 127 121 115 110 103 94 86 81 76 72 68 65 65 64 63 61
273 265 251 235 249 302 75 67 62 64 71 357 317 309 334 44 67 87 108 125 131 138 150 160 161 161 160 160 157 154 150 145 141 136 129 124 117 109 100 92 86 78 74 70 66 65 63 62 59
259 238 244 251 263 49 47 64 51 15 87 203 321 316 37 63 67 95 112 134 142 141 149 157 162 164 163 163 161 159 156 153 149 145 141 134 125 117 108 100 92 86 79 72 67 63 60 58 56
239 251 241 252 258 79 58 50 28 310 300 319 7 316 23 68 87 100 115 139 151 143 146 155 164 166 166 166 165 162 160 160 158 154 152 145 138 130 123 115 107 100 90 79 70 63 56 51 48
255 259 265 258 160 93 88 75 350 311 339 346 358 322 68 83 78 86 112 155 155 137 142 154 165 168 169 170 168 166 165 165 164 162 162 159 154 148 143 137 133 124 110 92 77 63 51 42 33
287 283 289 306 360 56 64 56 0 352 337 345 8 331 95 61 59 75 112 151 133 132 138 149 164 169 172 173 172 170 171 171 170 171 170 169 166 165 161 158 160 162 159 152 132 50 6 349 343
310 305 288 294 319 359 61 58 356 334 322 341 2 334 52 62 63 70 99 109 116 128 140 148 163 169 172 174 175 173 174 176 176 177 174 172 173 177 177 178 184 189 198 212 229 248 262 272 275
288 288 292 317 349 356 37 17 343 338 289 292 303 2 75 88 87 114 136 142 141 144 149 150 162 167 171 172 175 174 177 179 178 178 175 174 182 187 188 190 189 199 217 231 240 248 254 260 261
239 280 294 356 4 356 358 350 333 319 310 320 7 40 60 73 97 179 198 174 163 166 167 159 161 161 166 167 168 175 178 179 182 183 178 185 200 194 182 182 186 204 226 239 246 250 254 255 250
264 269 308 351 23 8 336 320 317 305 310 2 11 5 13 11 353 294 255 200 163 159 158 160 156 154 156 153 160 170 175 177 189 192 184 191 197 177 162 169 188 206 220 231 240 238 238 240 238
280 292 313 343 49 348 306 308 315 317 332 44 35 9 356 351 355 9 346 356 122 137 147 154 146 146 150 150 157 164 167 173 183 193 188 185 182 179 181 189 199 207 213 218 225 221 234 238 238
271 281 305 314 252 253 269 271 271 272 67 65 53 27 18 20 22 31 29 56 106 128 137 147 143 140 144 147 157 164 170 173 183 188 195 190 179 187 197 209 220 219 220 215 218 226 238 243 243
331 329 300 275 251 229 254 260 226 206 119 118 108 71 49 46 46 44 42 52 82 111 126 136 143 140 140 144 154 166 176 180 185 183 197 201 198 200 204 214 223 229 234 235 231 232 239 243 243
295 279 268 228 198 160 242 262 200 147 146 155 118 98 77 64 61 58 54 58 71 91 106 113 129 132 139 150 160 162 174 175 182 190 206 214 216 218 216 218 227 231 236 240 241 245 251 252 251
242 249 249 167 168 149 203 271 128 141 162 142 117 108 94 76 70 64 61 64 78 88 96 103 107 123 134 138 146 147 158 165 182 202 220 229 232 234 232 228 235 244 246 242 235 236 248 254 253
233 245 247 149 168 169 224 262 153 162 163 160 133 117 105 88 76 71 68 68 80 92 97 97 96 110 120 121 122 120 122 141 192 216 228 241 247 247 242 239 245 253 253 247 243 240 236 250 257
319 314 320 293 153 205 250 253 205 174 174 168 139 121 108 95 83 80 78 73 74 82 91 96 95 95 98 95 98 99 90 32 245 245 250 257 260 259 254 250 251 254 254 255 251 250 244 243 251
331 316 304 302 112 243 256 249 215 173 175 166 145 129 119 110 102 93 88 84 79 78 86 90 90 81 83 80 88 100 123 273 269 259 265 267 265 264 257 251 250 247 247 251 252 255 258 258 255
295 284 281 279 126 233 265 257 211 179 181 166 151 138 130 124 115 105 95 86 83 80 81 86 86 83 79 79 80 79 67 277 267 269 273 276 275 269 263 252 245 243 247 253 255 253 256 258 243
263 260 282 319 323 243 250 254 195 173 162 155 148 138 134 136 129 117 102 90 80 72 71 81 82 80 76 71 69 36 16 334 315 291 275 270 275 273 264 259 256 256 251 254 254 249 247 254 248
272 334 335 314 303 274 206 253 190 171 170 173 164 148 139 132 125 119 110 100 92 84 76 81 84 84 79 73 64 27 323 303 295 294 278 272 271 268 267 264 262 259 257 260 261 258 251 249 255
289 38 298 274 270 278 240 242 220 163 181 185 175 158 144 137 132 125 118 114 108 102 93 91 88 87 79 63 52 355 331 317 315 315 300 296 290 278 269 264 261 257 256 259 260 263 258 250 249
33 275 254 245 249 258 224 208 232 179 192 183 175 161 149 142 136 130 125 122 118 114 107 105 97 90 77 48 18 360 335 323 320 315 310 306 299 289 278 269 259 258 257 259 259 257 256 254 254
210 245 260 214 215 239 175 191 252 160 171 177 171 162 153 147 145 142 140 137 134 131 131 121 103 89 66 32 359 344 323 310 301 302 305 305 300 295 287 283 272 268 264 263 260 259 256 254 254
197 232 264 288 279 7 197 229 158 84 79 135 154 153 151 153 151 150 150 147 143 142 142 120 98 84 46 8 331 320 315 302 295 298 297 291 285 282 283 286 280 276 274 271 265 263 259 259 255
216 213 271 317 296 280 244 179 120 118 113 128 147 151 157 157 154 154 152 148 145 144 134 117 105 58 4 336 322 324 319 308 300 298 293 287 283 286 288 287 284 279 275 272 270 267 263 261 259
289 314 194 218 257 270 266 220 190 176 182 174 166 162 160 155 155 155 154 152 147 140 131 128 108 357 320 319 315 306 300 302 302 299 292 287 286 288 289 287 284 282 279 275 273 271 267 265 263
189 221 235 255 276 276 290 311 31 163 172 174 174 163 158 159 160 158 154 147 138 136 148 163 174 300 307 315 314 311 305 302 298 293 290 291 292 293 292 290 289 287 285 282 280 279 278 275 274
197 207 204 220 248 229 257 279 56 101 134 151 159 157 157 157 154 152 148 141 146 156 170 182 234 275 293 307 308 302 299 300 297 295 296 298 297 295 293 290 287 286 287 285 284 284 283 281 281
Height
1529 1531 1533 1535 1537 1536 1532 1526 1523 1526 1528 1531 1533 1534 1532 1533 1537 1545 1544 1542 1541 1541 1541 1543 1544 1545 1546 1548 1549 1551 1552 1553 1554 1554 1555 1556 1556 1556 1556 1556 1556 1555 1555 1555 1555 1554 1554 1554 1554
1529 1533 1536 1536 1536 1539 1532 1524 1526 1528 1531 1533 1533 1533 1532 1532 1535 1539 1540 1541 1541 1541 1541 1542 1543 1545 1546 1548 1549 1551 1552 1553 1554 1555 1555 1556 1556 1556 1557 1556 1556 1556 1556 1555 1555 1555 1555 1555 1554
1531 1533 1535 1532 1532 1532 1530 1525 1526 1529 1531 1533 1533 1532 1532 1534 1536 1538 1540 1540 1541 1540 1541 1542 1543 1545 1546 1548 1549 1551 1552 1553 1554 1555 1556 1557 1557 1557 1557 1557 1557 1556 1556 1556 1556 1555 1555 1555 1555
1533 1535 1534 1531 1529 1524 1524 1525 1527 1530 1531 1532 1533 1532 1532 1534 1535 1537 1539 1540 1540 1540 1540 1541 1543 1545 1546 1548 1549 1551 1552 1554 1555 1555 1556 1557 1557 1557 1557 1557 1557 1557 1556 1556 1556 1556 1556 1556 1556
1534 1533 1532 1531 1525 1522 1523 1526 1529 1530 1530 1531 1532 1532 1533 1535 1534 1536 1538 1539 1540 1540 1540 1541 1542 1544 1546 1547 1549 1551 1552 1554 1555 1556 1557 1557 1557 1558 1557 1557 1557 1557 1557 1557 1556 1556 1556 1556 1556
1535 1531 1533 1532 1524 1522 1524 1527 1530 1530 1530 1530 1531 1532 1534 1535 1534 1535 1537 1538 1539 1540 1539 1540 1542 1544 1545 1547 1549 1551 1552 1554 1555 1556 1557 1557 1557 1557 1557 1557 1557 1557 1557 1557 1557 1557 1556 1556 1556
1535 1532 1532 1528 1526 1525 1525 1528 1531 1531 1532 1532 1532 1533 1535 1535 1534 1535 1535 1536 1538 1538 1538 1538 1541 1543 1545 1547 1549 1550 1552 1553 1554 1556 1556 1557 1557 1558 1557 1557 1557 1557 1557 1557 1557 1557 1556 1556 1556
1534 1533 1531 1528 1528 1527 1526 1529 1532 1533 1533 1533 1533 1534 1534 1534 1534 1533 1534 1534 1536 1537 1537 1537 1539 1541 1543 1546 1548 1550 1552 1553 1554 1555 1556 1557 1557 1557 1557 1557 1557 1557 1557 1557 1557 1556 1556 1556 1556
1534 1537 1536 1530 1529 1528 1527 1530 1532 1532 1533 1533 1533 1534 1534 1533 1532 1532 1532 1533 1534 1535 1536 1537 1538 1540 1542 1545 1547 1549 1551 1552 1553 1554 1555 1556 1556 1557 1557 1557 1557 1557 1557 1556 1556 1556 1555 1555 1555
1534 1538 1533 1528 1528 1529 1530 1531 1532 1532 1531 1531 1531 1532 1532 1531 1531 1530 1531 1531 1532 1533 1535 1537 1538 1539 1542 1544 1546 1548 1550 1551 1552 1553 1554 1555 1556 1556 1556 1556 1556 1556 1556 1555 1555 1555 1554 1554 1553
1531 1532 1529 1528 1529 1531 1532 1532 1532 1531 1532 1532 1532 1532 1531 1530 1530 1529 1529 1530 1530 1531 1533 1536 1538 1539 1541 1543 1545 1547 1548 1550 1551 1552 1553 1554 1555 1555 1555 1555 1555 1554 1554 1553 1553 1553 1552 1552 1551
1531 1529 1528 1529 1530 1532 1532 1532 1532 1531 1532 1532 1532 1531 1530 1529 1528 1527 1527 1528 1529 1530 1531 1534 1537 1538 1540 1542 1544 1546 1547 1549 1550 1551 1552 1553 1553 1553 1553 1553 1553 1552 1552 1551 1551 1550 1550 1549 1549
1529 1528 1528 1529 1530 1530 1531 1531 1531 1530 1531 1531 1531 1530 1529 1528 1527 1526 1526 1526 1527 1529 1530 1533 1536 1538 1539 1541 1543 1545 1546 1547 1548 1550 1551 1551 1551 1551 1551 1551 1551 1550 1550 1549 1549 1548 1547 1547 1546
1529 1528 1527 1527 1527 1528 1529 1528 1529 1529 1529 1530 1530 1530 1529 1528 1527 1526 1525 1526 1527 1528 1530 1532 1535 1537 1538 1540 1542 1543 1545 1546 1547 1548 1548 1549 1549 1549 1549 1549 1548 1548 1547 1547 1546 1545 1544 1543 1542
1529 1529 1525 1523 1524 1526 1528 1528 1525 1527 1528 1529 1529 1529 1529 1528 1527 1526 1525 1526 1526 1527 1529 1531 1533 1536 1537 1539 1541 1542 1543 1544 1545 1546 1546 1547 1547 1547 1546 1546 1545 1545 1544 1544 1542 1541 1540 1539 1538
1527 1528 1527 1520 1522 1524 1530 1531 1523 1525 1527 1528 1529 1530 1530 1529 1528 1527 1526 1526 1526 1527 1528 1530 1532 1535 1536 1538 1540 1541 1542 1543 1543 1544 1544 1544 1544 1544 1543 1542 1542 1541 1541 1540 1538 1537 1536 1534 1533
1526 1528 1523 1521 1520 1521 1525 1526 1523 1524 1525 1527 1529 1529 1530 1530 1529 1528 1527 1527 1527 1528 1529 1530 1532 1534 1536 1537 1538 1539 1540 1541 1541 1541 1541 1541 1541 1540 1540 1539 1538 1537 1536 1535 1534 1532 1531 1529 1527
1528 1524 1520 1520 1520 1520 1523 1523 1521 1521 1523 1525 1527 1529 1530 1530 1531 1530 1529 1528 1529 1529 1529 1530 1532 1534 1535 1536 1537 1538 1538 1539 1539 1538 1538 1538 1537 1537 1536 1535 1534 1533 1531 1530 1529 1527 1526 1524 1522
1524 1526 1526 1520 1518 1520 1521 1520 1518 1518 1521 1523 1525 1528 1530 1531 1531 1531 1530 1530 1530 1530 1531 1531 1532 1534 1534 1535 1536 1536 1537 1537 1537 1536 1536 1535 1534 1533 1532 1531 1529 1528 1526 1525 1524 1522 1520 1518 1517
1526 1528 1526 1519 1517 1519 1519 1517 1515 1515 1518 1520 1523 1526 1528 1530 1531 1531 1531 1531 1531 1531 1531 1532 1533 1533 1534 1535 1535 1535 1535 1535 1535 1534 1533 1532 1531 1530 1528 1527 1525 1524 1522 1520 1519 1517 1514 1512 1512
1525 1526 1523 1522 1518 1517 1520 1519 1514 1513 1516 1519 1522 1524 1527 1529 1530 1531 1531 1531 1531 1531 1532 1533 1533 1533 1534 1534 1534 1534 1534 1534 1533 1532 1531 1529 1528 1526 1525 1523 1521 1519 1517 1515 1513 1512 1509 1507 1506
1526 1519 1519 1521 1527 1525 1520 1529 1514 1512 1515 1517 1520 1523 1525 1528 1529 1530 1530 1531 1531 1532 1532 1533 1533 1533 1533 1533 1533 1533 1532 1531 1530 1529 1528 1526 1524 1522 1521 1519 1517 1514 1512 1510 1508 1506 1504 1502 1499
1519 1520 1521 1522 1526 1528 1518 1524 1511 1509 1515 1515 1517 1520 1523 1526 1528 1529 1529 1530 1531 1532 1532 1533 1533 1533 1533 1532 1532 1531 1530 1529 1528 1526 1524 1522 1520 1518 1516 1514 1512 1509 1507 1505 1502 1500 1498 1496 1493
1519 1521 1521 1523 1528 1533 1512 1518 1509 1506 1505 1508 1512 1516 1520 1524 1526 1527 1528 1529 1530 1531 1531 1532 1532 1532 1531 1531 1530 1529 1528 1526 1524 1522 1520 1518 1516 1514 1511 1509 1506 1504 1501 1499 1496 1494 1491 1489 1486
1521 1528 1532 1534 1538 1526 1500 1506 1504 1494 1494 1499 1506 1512 1517 1521 1524 1525 1527 1528 1529 1529 1530 1530 1530 1530 1530 1529 1528 1526 1525 1523 1521 1518 1516 1513 1511 1508 1506 1504 1501 1498 1495 1492 1489 1486 1484 1481 1478
1519 1521 1531 1533 1525 1513 1508 1509 1501 1494 1494 1497 1503 1509 1514 1519 1522 1524 1525 1526 1527 1528 1528 1528 1528 1528 1527 1526 1525 1523 1522 1519 1517 1515 1512 1509 1506 1503 1501 1498 1495 1492 1488 1485 1482 1479 1476 1473 1470
1514 1518 1513 1522 1518 1519 1507 1499 1502 1496 1498 1499 1503 1507 1512 1516 1519 1521 1523 1524 1525 1526 1526 1526 1526 1525 1524 1523 1522 1520 1518 1516 1513 1510 1507 1504 1501 1498 1495 1491 1488 1485 1481 1478 1475 1471 1468 1465 1462
1513 1512 1517 1524 1527 1526 1504 1497 1500 1502 1500 1500 1502 1506 1509 1513 1517 1519 1521 1522 1523 1524 1524 1524 1523 1523 1521 1520 1518 1516 1514 1511 1508 1505 1502 1499 1495 1492 1488 1485 1481 1477 1474 1470 1467 1463 1460 1457 1453
1514 1514 1514 1515 1513 1523 1521 1505 1491 1491 1493 1497 1500 1504 1508 1511 1514 1517 1519 1520 1521 1521 1521 1521 1520 1519 1518 1516 1514 1512 1509 1506 1503 1500 1496 1493 1489 1486 1482 1478 1474 1470 1466 1463 1459 1455 1452 1448 1445
1503 1506 1510 1520 1515 1511 1517 1509 1489 1489 1491 1494 1499 1502 1506 1510 1512 1515 1516 1517 1518 1518 1518 1518 1517 1516 1514 1512 1510 1507 1504 1501 1498 1494 1491 1487 1483 1479 1475 1471 1466 1462 1458 1455 1451 1446 1443 1439 1435